Regional Weather Roundup
Issued by NWS

Home | Current Version | Previous Version | Text Only | Print | Product List | Glossary Off
Versions: 1 2 3 4 5 6 7 8 9 10 11 12 13 14 15 16 17 18 19 20 21 22 23 24 25 26 27 28 29 30 31 32 33 34 35 36 37 38 39 40 41 42 43 44 45 46 47 48 49 50

000
ASUS43 KIND 050059
RWRIN

WEATHER ROUNDUP FOR INDIANA
NATIONAL WEATHER SERVICE INDIANAPOLIS IN
900 PM EDT WED MAY 04 2016

NOTE: "FAIR" INDICATES FEW OR NO CLOUDS BELOW 12,000 FEET WITH NO
SIGNIFICANT WEATHER AND/OR OBSTRUCTIONS TO VISIBILITY.

* - STATION DOES NOT REPORT WEATHER SUCH AS PRECIPITATION OR FOG.

+ - STATION NOT QUALITY CONTROLLED BY THE NATIONAL WEATHER SERVICE.
    USE DATA WITH CAUTION...ESPECIALLY DEWPOINT AND RELATIVE
    HUMIDITY OBSERVATIONS.

INZ001>003-010>013-019-020-050200-
NORTHWEST INDIANA

CITY           SKY/WX    TMP DP  RH WIND       PRES   REMARKS
GARY /AIRPORT/ MOCLDY    45  41  87 N12G23    29.85R
RENSSELAER +   CLOUDY    45  37  76 NW9       29.83S

$$

LMZ046-743>745-050200-
SOUTHERN LAKE MICHIGAN

STATION/POSITION TIME  TEMP    WIND        PRES    WAVE
                       AIR SEA DIR/SP/G            HT
                 (UTC) (F)     (DEG/KT/KT) (MB)    (FT)
BURNS HARBOR     0009   44     360/ 17/ 23 1010.5R
MICHIGAN CITY    0000   42     340/ 25/ 29   N/A

$$

INZ004-005-014>016-021>024-050200-
NORTH CENTRAL INDIANA

CITY           SKY/WX    TMP DP  RH WIND       PRES   REMARKS
ELKHART        LGT RAIN  39  39 100 NW12G20   29.74S
GOSHEN         LGT RAIN  39  35  86 NW13      29.73S
SOUTH BEND     LGT RAIN  39  37  92 N18G25    29.76S

$$

INZ006>009-017-018-025>027-050200-
NORTHEAST INDIANA

CITY           SKY/WX    TMP DP  RH WIND       PRES   REMARKS
ANGOLA *+      MOCLDY    39  37  93 W8        29.69S
FORT WAYNE     CLOUDY    40  36  86 W12       29.73R

$$

INZ028-029-035-036-043>045-051>053-050200-
WEST CENTRAL INDIANA

CITY           SKY/WX    TMP DP  RH WIND       PRES   REMARKS
CRAWFORDSVL +  CLOUDY    44  40  86 N12       29.82R
GREENCASTLE +  CLOUDY    46  43  87 NW6       29.82R
LAFAYETTE      CLOUDY    45  37  73 NW7       29.82S
TERRE HAUTE    CLOUDY    52  38  58 N12       29.82R

$$

INZ030>032-037>040-046>048-054>057-064-065-050200-
CENTRAL INDIANA

CITY           SKY/WX    TMP DP  RH WIND       PRES   REMARKS
COLUMBUS       CLOUDY    48  41  76 N18G30    29.79R
INDIANAPOLIS   CLOUDY    48  38  68 N17       29.79R
-EAGLE CREEK   CLOUDY    48  38  68 N20G25    29.80R
KOKOMO *+      CLOUDY    43  36  75 NW15G26   29.78S
SHELBYVILLE    MOCLDY    49  37  63 NW12      29.78R

$$

INZ033-034-041-042-049-050-058-059-050200-
EAST CENTRAL INDIANA

CITY           SKY/WX    TMP DP  RH WIND       PRES   REMARKS
MUNCIE         CLOUDY    45  36  70 NW16G25   29.76R

$$

INZ060-061-067>069-081>083-085>088-050200-
SOUTHWEST INDIANA

CITY           SKY/WX    TMP DP  RH WIND       PRES   REMARKS
EVANSVILLE     MOCLDY    56  39  53 N12G21    29.83R
HUNTINGBURG *+ MOCLDY    54  39  58 N13G21    29.81R

$$

INZ062-063-066-070>080-084-089>092-050200-
SOUTH CENTRAL AND SOUTHEAST INDIANA

CITY           SKY/WX    TMP DP  RH WIND       PRES   REMARKS
BLOOMINGTON    CLOUDY    49  40  71 NW5       29.80R
MADISON *+     PTCLDY    50  36  57 NW6       29.79R
SEYMOUR +      CLOUDY    54  39  58 N7        29.78R

$$




USA.gov is the U.S. government's official web portal to all federal, state and local government web resources and services.